Time,TemperatureF,DewpointF,PressureIn,WindDirection,WindDirectionDegrees,WindSpeedMPH,WindSpeedGustMPH,Humidity,HourlyPrecipIn,Conditions,Clouds,dailyrainin,SoftwareType,DateUTC
2013-05-31 00:00:00,65.8,42.7,29.96,North,8,0.0,0.0,43,0.00,CLR,,0.00,WeatherDisplay:10.37,2013-05-31 08:00:00,
2013-05-31 00:10:00,65.8,44.4,29.96,West,259,0.0,0.0,46,0.00,CLR,,0.00,WeatherDisplay:10.37,2013-05-31 08:10:00,
2013-05-31 00:15:00,65.8,41.5,29.97,WSW,257,0.0,0.0,41,0.00,CLR,,0.00,WeatherDisplay:10.37,2013-05-31 08:15:00,
2013-05-31 00:25:00,65.2,41.5,29.97,WSW,252,0.0,0.0,42,0.00,CLR,,0.00,WeatherDisplay:10.37,2013-05-31 08:25:00,
2013-05-31 00:30:00,64.7,42.3,29.98,West,269,0.0,0.0,44,0.00,CLR,,0.00,WeatherDisplay:10.37,2013-05-31 08:30:00,
2013-05-31 00:40:00,63.9,41.5,29.98,WNW,294,0.0,0.0,44,0.00,CLR,,0.00,WeatherDisplay:10.37,2013-05-31 08:40:00,
2013-05-31 00:45:00,63.7,41.4,29.98,WNW,302,0.0,0.0,44,0.00,CLR,,0.00,WeatherDisplay:10.37,2013-05-31 08:45:00,
2013-05-31 00:50:00,64.2,42.4,29.98,NW,325,0.0,0.0,45,0.00,CLR,,0.00,WeatherDisplay:10.37,2013-05-31 08:50:00,
2013-05-31 00:55:00,64.4,42.6,29.98,North,10,0.0,0.0,45,0.00,CLR,,0.00,WeatherDisplay:10.37,2013-05-31 08:55:00,
2013-05-31 01:00:00,64.0,42.8,29.98,NE,45,0.0,0.0,46,0.00,CLR,,0.00,WeatherDisplay:10.37,2013-05-31 09:00:00,
2013-05-31 01:15:00,63.3,41.6,29.98,NNE,29,0.0,0.0,45,0.00,CLR,,0.00,WeatherDisplay:10.37,2013-05-31 09:15:00,
2013-05-31 01:20:00,63.0,41.9,29.98,WNW,299,0.0,0.0,46,0.00,CLR,,0.00,WeatherDisplay:10.37,2013-05-31 09:20:00,
2013-05-31 01:25:00,62.6,40.9,29.99,WNW,297,0.0,0.0,45,0.00,CLR,,0.00,WeatherDisplay:10.37,2013-05-31 09:25:00,
2013-05-31 01:30:00,62.6,42.1,29.98,North,6,0.0,0.0,47,0.00,CLR,,0.00,WeatherDisplay:10.37,2013-05-31 09:30:00,
2013-05-31 01:35:00,62.8,41.7,29.98,NNE,32,0.0,0.0,46,0.00,CLR,,0.00,WeatherDisplay:10.37,2013-05-31 09:35:00,
2013-05-31 01:40:00,62.8,43.3,29.98,NNE,19,0.0,0.0,49,0.00,CLR,,0.00,WeatherDisplay:10.37,2013-05-31 09:40:00,
2013-05-31 01:45:00,62.3,41.8,29.99,SW,226,0.0,0.0,47,0.00,CLR,,0.00,WeatherDisplay:10.37,2013-05-31 09:45:00,
2013-05-31 01:55:00,61.0,42.2,29.99,NNW,340,0.0,0.0,50,0.00,CLR,,0.00,WeatherDisplay:10.37,2013-05-31 09:55:00,
2013-05-31 02:00:00,60.6,41.3,29.99,NNE,30,0.0,0.0,49,0.00,CLR,,0.00,WeatherDisplay:10.37,2013-05-31 10:00:00,
2013-05-31 02:10:00,61.3,40.9,29.99,NNE,33,0.0,0.0,47,0.00,CLR,,0.00,WeatherDisplay:10.37,2013-05-31 10:10:00,
2013-05-31 02:15:00,61.3,41.5,29.99,NW,325,0.0,0.0,48,0.00,CLR,,0.00,WeatherDisplay:10.37,2013-05-31 10:15:00,
2013-05-31 02:25:00,61.3,42.5,29.99,NE,41,0.0,0.0,50,0.00,CLR,,0.00,WeatherDisplay:10.37,2013-05-31 10:25:00,
2013-05-31 02:30:00,61.2,42.4,29.99,North,6,0.0,0.0,50,0.00,CLR,,0.00,WeatherDisplay:10.37,2013-05-31 10:30:00,
2013-05-31 02:40:00,60.4,42.2,29.99,WNW,289,0.0,0.0,51,0.00,CLR,,0.00,WeatherDisplay:10.37,2013-05-31 10:40:00,
2013-05-31 02:45:00,60.1,41.9,29.99,West,263,0.0,0.0,51,0.00,CLR,,0.00,WeatherDisplay:10.37,2013-05-31 10:45:00,
2013-05-31 02:55:00,59.5,42.4,29.99,NNE,13,0.0,0.0,53,0.00,CLR,,0.00,WeatherDisplay:10.37,2013-05-31 10:55:00,
2013-05-31 03:00:00,59.4,41.7,30.00,NNE,23,0.0,0.0,52,0.00,CLR,,0.00,WeatherDisplay:10.37,2013-05-31 11:00:00,
2013-05-31 03:10:00,58.8,43.1,30.00,NW,324,0.0,0.0,56,0.00,CLR,,0.00,WeatherDisplay:10.37,2013-05-31 11:10:00,
2013-05-31 03:15:00,58.6,41.5,30.00,NNE,16,0.0,0.0,53,0.00,CLR,,0.00,WeatherDisplay:10.37,2013-05-31 11:15:00,
2013-05-31 03:25:00,59.2,42.5,30.00,NNE,26,0.0,0.0,54,0.00,CLR,,0.00,WeatherDisplay:10.37,2013-05-31 11:25:00,
2013-05-31 03:35:00,59.1,43.0,30.00,WNW,287,0.0,0.0,55,0.00,CLR,,0.00,WeatherDisplay:10.37,2013-05-31 11:35:00,
2013-05-31 03:40:00,58.2,44.3,30.00,West,276,0.0,0.0,60,0.00,CLR,,0.00,WeatherDisplay:10.37,2013-05-31 11:40:00,
2013-05-31 03:45:00,57.4,46.5,30.00,NW,309,0.0,0.0,67,0.00,CLR,,0.00,WeatherDisplay:10.37,2013-05-31 11:45:00,
2013-05-31 03:50:00,57.1,43.3,30.00,North,356,0.0,0.0,60,0.00,CLR,,0.00,WeatherDisplay:10.37,2013-05-31 11:50:00,
2013-05-31 03:55:00,57.3,42.7,30.00,NNE,25,0.0,0.0,58,0.00,CLR,,0.00,WeatherDisplay:10.37,2013-05-31 11:55:00,
2013-05-31 04:00:00,57.9,43.2,30.00,ENE,74,0.0,0.0,58,0.00,CLR,,0.00,WeatherDisplay:10.37,2013-05-31 12:00:00,
2013-05-31 04:10:00,58.1,43.4,30.00,ENE,63,0.0,0.0,58,0.00,CLR,,0.00,WeatherDisplay:10.37,2013-05-31 12:10:00,
2013-05-31 04:15:00,57.9,43.2,30.00,NE,47,0.0,0.0,58,0.00,CLR,,0.00,WeatherDisplay:10.37,2013-05-31 12:15:00,
2013-05-31 04:25:00,57.7,43.1,30.00,West,275,0.0,0.0,58,0.00,CLR,,0.00,WeatherDisplay:10.37,2013-05-31 12:25:00,
2013-05-31 04:30:00,57.5,43.7,30.00,WNW,298,0.0,0.0,60,0.00,CLR,,0.00,WeatherDisplay:10.37,2013-05-31 12:30:00,
2013-05-31 04:40:00,57.5,43.7,30.00,West,261,0.0,0.0,60,0.00,CLR,,0.00,WeatherDisplay:10.37,2013-05-31 12:40:00,
2013-05-31 04:45:00,57.4,44.5,30.00,NNW,329,0.0,0.0,62,0.00,CLR,,0.00,WeatherDisplay:10.37,2013-05-31 12:45:00,
2013-05-31 04:55:00,57.0,43.3,30.01,North,6,0.0,0.0,60,0.00,CLR,,0.00,WeatherDisplay:10.37,2013-05-31 12:55:00,
2013-05-31 05:00:00,57.0,44.1,30.01,NNW,342,0.0,0.0,62,0.00,CLR,,0.00,WeatherDisplay:10.37,2013-05-31 13:00:00,
2013-05-31 05:10:00,57.0,43.3,30.01,NW,323,0.0,0.0,60,0.00,CLR,,0.00,WeatherDisplay:10.37,2013-05-31 13:10:00,
2013-05-31 05:15:00,57.0,43.3,30.02,WNW,286,0.0,0.0,60,0.00,CLR,,0.00,WeatherDisplay:10.37,2013-05-31 13:15:00,
2013-05-31 05:25:00,57.4,44.0,30.02,NNE,17,0.0,0.0,61,0.00,CLR,,0.00,WeatherDisplay:10.37,2013-05-31 13:25:00,
2013-05-31 05:30:00,58.7,45.3,30.02,East,83,0.0,0.0,61,0.00,CLR,,0.00,WeatherDisplay:10.37,2013-05-31 13:30:00,
2013-05-31 05:40:00,59.4,48.0,30.02,NE,51,0.0,0.0,66,0.00,CLR,,0.00,WeatherDisplay:10.37,2013-05-31 13:40:00,
2013-05-31 05:45:00,59.1,45.2,30.02,NE,51,0.0,0.0,60,0.00,CLR,,0.00,WeatherDisplay:10.37,2013-05-31 13:45:00,
2013-05-31 05:50:00,58.8,44.5,30.02,NE,45,0.0,0.0,59,0.00,CLR,,0.00,WeatherDisplay:10.37,2013-05-31 13:50:00,
2013-05-31 05:55:00,58.5,44.6,30.02,NE,47,0.0,0.0,60,0.00,CLR,,0.00,WeatherDisplay:10.37,2013-05-31 13:55:00,
2013-05-31 06:00:00,58.2,43.9,30.02,NE,51,0.0,0.0,59,0.00,CLR,,0.00,WeatherDisplay:10.37,2013-05-31 14:00:00,
2013-05-31 06:10:00,57.7,43.9,30.02,NE,48,0.0,0.0,60,0.00,CLR,,0.00,WeatherDisplay:10.37,2013-05-31 14:10:00,
2013-05-31 06:15:00,57.4,43.6,30.02,ENE,58,0.0,0.0,60,0.00,CLR,,0.00,WeatherDisplay:10.37,2013-05-31 14:15:00,
2013-05-31 06:25:00,57.0,43.7,30.02,NE,53,0.0,0.0,61,0.00,CLR,,0.00,WeatherDisplay:10.37,2013-05-31 14:25:00,
2013-05-31 06:30:00,57.0,44.1,30.03,ENE,66,0.0,0.0,62,0.00,CLR,,0.00,WeatherDisplay:10.37,2013-05-31 14:30:00,
2013-05-31 06:35:00,56.8,44.4,30.03,NE,44,0.0,0.0,63,0.00,CLR,,0.00,WeatherDisplay:10.37,2013-05-31 14:35:00,
2013-05-31 06:40:00,56.8,46.0,30.03,NE,38,0.0,0.0,67,0.00,CLR,,0.00,WeatherDisplay:10.37,2013-05-31 14:40:00,
2013-05-31 06:45:00,57.0,45.4,30.03,NE,39,0.0,0.0,65,0.00,CLR,,0.00,WeatherDisplay:10.37,2013-05-31 14:45:00,
2013-05-31 06:50:00,57.0,45.4,30.03,NE,44,0.0,0.0,65,0.00,CLR,,0.00,WeatherDisplay:10.37,2013-05-31 14:50:00,
2013-05-31 06:55:00,57.3,44.8,30.03,NE,48,0.0,0.0,63,0.00,CLR,,0.00,WeatherDisplay:10.37,2013-05-31 14:55:00,
2013-05-31 07:00:00,57.6,44.6,30.03,ESE,123,0.0,0.0,62,0.00,CLR,,0.00,WeatherDisplay:10.37,2013-05-31 15:00:00,
2013-05-31 07:10:00,57.7,44.8,30.04,ENE,72,0.0,0.0,62,0.00,CLR,,0.00,WeatherDisplay:10.37,2013-05-31 15:10:00,
2013-05-31 07:15:00,57.7,45.6,30.04,SW,236,0.0,0.0,64,0.00,CLR,,0.00,WeatherDisplay:10.37,2013-05-31 15:15:00,
2013-05-31 07:25:00,57.7,46.0,30.04,SW,232,0.0,0.0,65,0.00,CLR,,0.00,WeatherDisplay:10.37,2013-05-31 15:25:00,
2013-05-31 07:35:00,57.9,44.1,30.04,East,88,0.0,0.0,60,0.00,CLR,,0.00,WeatherDisplay:10.37,2013-05-31 15:35:00,
2013-05-31 07:40:00,57.9,45.4,30.04,East,95,0.0,0.0,63,0.00,CLR,,0.00,WeatherDisplay:10.37,2013-05-31 15:40:00,
2013-05-31 07:45:00,57.7,45.6,30.04,ENE,69,0.0,0.0,64,0.00,CLR,,0.00,WeatherDisplay:10.37,2013-05-31 15:45:00,
2013-05-31 07:55:00,57.4,45.3,30.04,ENE,63,0.0,0.0,64,0.00,CLR,,0.00,WeatherDisplay:10.37,2013-05-31 15:55:00,
2013-05-31 08:00:00,57.2,44.3,30.05,NNE,21,0.0,0.0,62,0.00,CLR,,0.00,WeatherDisplay:10.37,2013-05-31 16:00:00,
2013-05-31 08:05:00,57.0,44.1,30.05,ENE,67,0.0,0.0,62,0.00,CLR,,0.00,WeatherDisplay:10.37,2013-05-31 16:05:00,
2013-05-31 08:10:00,57.0,45.0,30.05,NW,318,0.0,0.0,64,0.00,CLR,,0.00,WeatherDisplay:10.37,2013-05-31 16:10:00,
2013-05-31 08:15:00,57.0,45.8,30.05,WNW,284,0.0,0.0,66,0.00,CLR,,0.00,WeatherDisplay:10.37,2013-05-31 16:15:00,
2013-05-31 08:20:00,56.8,46.0,30.05,West,265,0.0,0.0,67,0.00,CLR,,0.00,WeatherDisplay:10.37,2013-05-31 16:20:00,
2013-05-31 08:25:00,56.8,45.6,30.05,WSW,239,0.0,0.0,66,0.00,CLR,,0.00,WeatherDisplay:10.37,2013-05-31 16:25:00,
2013-05-31 08:30:00,56.8,45.1,30.05,WNW,296,0.0,0.0,65,0.00,CLR,,0.00,WeatherDisplay:10.37,2013-05-31 16:30:00,
2013-05-31 08:40:00,56.8,45.2,30.05,WSW,241,0.0,0.0,65,0.00,CLR,,0.00,WeatherDisplay:10.37,2013-05-31 16:40:00,
2013-05-31 08:45:00,56.8,44.4,30.05,West,270,0.0,0.0,63,0.00,CLR,,0.00,WeatherDisplay:10.37,2013-05-31 16:45:00,
2013-05-31 08:55:00,57.0,44.5,30.05,WSW,248,0.0,0.0,63,0.00,CLR,,0.00,WeatherDisplay:10.37,2013-05-31 16:55:00,
2013-05-31 09:00:00,57.2,46.3,30.06,WSW,247,0.0,0.0,67,0.00,CLR,,0.00,WeatherDisplay:10.37,2013-05-31 17:00:00,
2013-05-31 09:05:00,57.4,44.9,30.06,WSW,238,0.0,0.0,63,0.00,CLR,,0.00,WeatherDisplay:10.37,2013-05-31 17:05:00,
2013-05-31 09:10:00,57.6,45.1,30.06,ESE,120,0.0,0.0,63,0.00,CLR,,0.00,WeatherDisplay:10.37,2013-05-31 17:10:00,
2013-05-31 09:15:00,57.9,45.4,30.06,ENE,78,0.0,0.0,63,0.00,CLR,,0.00,WeatherDisplay:10.37,2013-05-31 17:15:00,
2013-05-31 09:25:00,58.6,44.8,30.06,WSW,238,0.0,0.0,60,0.00,CLR,,0.00,WeatherDisplay:10.37,2013-05-31 17:25:00,
2013-05-31 09:30:00,59.0,44.2,30.06,WSW,254,0.0,0.0,58,0.00,CLR,,0.00,WeatherDisplay:10.37,2013-05-31 17:30:00,
2013-05-31 09:40:00,60.7,44.9,30.07,NE,44,0.0,0.0,56,0.00,CLR,,0.00,WeatherDisplay:10.37,2013-05-31 17:40:00,
2013-05-31 09:45:00,62.9,46.0,30.06,NE,51,0.0,0.0,54,0.00,CLR,,0.00,WeatherDisplay:10.37,2013-05-31 17:45:00,
2013-05-31 09:50:00,65.9,47.7,30.06,SSW,197,0.0,0.0,52,0.00,CLR,,0.00,WeatherDisplay:10.37,2013-05-31 17:50:00,
2013-05-31 09:55:00,66.9,48.2,30.06,SSE,151,0.0,0.0,51,0.00,CLR,,0.00,WeatherDisplay:10.37,2013-05-31 17:55:00,
2013-05-31 10:00:00,66.8,48.6,30.06,SE,139,0.0,0.0,52,0.00,CLR,,0.00,WeatherDisplay:10.37,2013-05-31 18:00:00,
2013-05-31 10:05:00,65.9,47.8,30.06,SSE,152,0.0,0.0,52,0.00,CLR,,0.00,WeatherDisplay:10.37,2013-05-31 18:05:00,
2013-05-31 10:10:00,66.2,49.0,30.06,SSE,155,0.0,0.0,54,0.00,CLR,,0.00,WeatherDisplay:10.37,2013-05-31 18:10:00,
2013-05-31 10:15:00,67.1,48.4,30.06,ENE,74,0.0,0.0,51,0.00,CLR,,0.00,WeatherDisplay:10.37,2013-05-31 18:15:00,
2013-05-31 10:25:00,69.1,49.7,30.06,ESE,120,0.0,0.0,50,0.00,CLR,,0.00,WeatherDisplay:10.37,2013-05-31 18:25:00,
2013-05-31 10:30:00,70.7,51.7,30.06,ESE,115,0.0,0.0,51,0.00,CLR,,0.00,WeatherDisplay:10.37,2013-05-31 18:30:00,
2013-05-31 10:40:00,74.1,54.3,30.07,East,99,0.0,0.0,50,0.00,CLR,,0.00,WeatherDisplay:10.37,2013-05-31 18:40:00,
2013-05-31 10:45:00,75.3,54.8,30.07,SE,127,0.0,0.0,49,0.00,CLR,,0.00,WeatherDisplay:10.37,2013-05-31 18:45:00,
2013-05-31 10:50:00,75.8,54.7,30.07,South,170,0.0,0.0,48,0.00,CLR,,0.00,WeatherDisplay:10.37,2013-05-31 18:50:00,
2013-05-31 10:55:00,76.3,54.6,30.07,ESE,116,0.0,0.0,47,0.00,CLR,,0.00,WeatherDisplay:10.37,2013-05-31 18:55:00,
2013-05-31 11:00:00,76.8,55.0,30.07,SSE,166,0.0,0.0,47,0.00,CLR,,0.00,WeatherDisplay:10.37,2013-05-31 19:00:00,
2013-05-31 11:10:00,77.9,54.9,30.07,SE,127,0.0,0.0,45,0.00,CLR,,0.00,WeatherDisplay:10.37,2013-05-31 19:10:00,
2013-05-31 11:15:00,79.0,55.9,30.07,SSE,161,0.0,0.0,45,0.00,CLR,,0.00,WeatherDisplay:10.37,2013-05-31 19:15:00,
2013-05-31 11:25:00,79.6,56.4,30.06,SSW,212,0.0,0.0,45,0.00,CLR,,0.00,WeatherDisplay:10.37,2013-05-31 19:25:00,
2013-05-31 11:30:00,80.2,56.3,30.06,SSW,198,0.0,0.0,44,0.00,CLR,,0.00,WeatherDisplay:10.37,2013-05-31 19:30:00,
2013-05-31 11:40:00,79.4,55.0,30.06,South,186,0.0,0.0,43,0.00,CLR,,0.00,WeatherDisplay:10.37,2013-05-31 19:40:00,
2013-05-31 11:45:00,78.1,55.0,30.06,WNW,282,0.0,0.0,45,0.00,CLR,,0.00,WeatherDisplay:10.37,2013-05-31 19:45:00,
2013-05-31 11:55:00,78.1,54.4,30.06,SSW,197,0.0,0.0,44,0.00,CLR,,0.00,WeatherDisplay:10.37,2013-05-31 19:55:00,
2013-05-31 12:00:00,78.9,58.1,30.06,SSW,205,0.0,0.0,49,0.00,CLR,,0.00,WeatherDisplay:10.37,2013-05-31 20:00:00,
2013-05-31 12:05:00,79.8,54.7,30.06,SW,221,0.0,0.0,42,0.00,CLR,,0.00,WeatherDisplay:10.37,2013-05-31 20:05:00,
2013-05-31 12:10:00,80.2,55.0,30.06,SSW,195,0.0,0.0,42,0.00,CLR,,0.00,WeatherDisplay:10.37,2013-05-31 20:10:00,
2013-05-31 12:15:00,80.8,55.6,30.06,SW,217,0.0,0.0,42,0.00,CLR,,0.00,WeatherDisplay:10.37,2013-05-31 20:15:00,
2013-05-31 12:25:00,81.1,55.2,30.06,SW,236,0.0,0.0,41,0.00,CLR,,0.00,WeatherDisplay:10.37,2013-05-31 20:25:00,
2013-05-31 12:30:00,81.7,55.0,30.06,West,276,0.0,0.0,40,0.00,CLR,,0.00,WeatherDisplay:10.37,2013-05-31 20:30:00,
2013-05-31 12:35:00,82.0,55.3,30.06,WSW,247,0.0,0.0,40,0.00,CLR,,0.00,WeatherDisplay:10.37,2013-05-31 20:35:00,
2013-05-31 12:40:00,82.6,57.2,30.06,SW,218,0.0,0.0,42,0.00,CLR,,0.00,WeatherDisplay:10.37,2013-05-31 20:40:00,
2013-05-31 12:45:00,82.3,55.6,30.06,NE,53,0.0,0.0,40,0.00,CLR,,0.00,WeatherDisplay:10.37,2013-05-31 20:45:00,
2013-05-31 12:55:00,82.9,56.8,30.06,SW,234,0.0,0.0,41,0.00,CLR,,0.00,WeatherDisplay:10.37,2013-05-31 20:55:00,
2013-05-31 13:00:00,82.9,56.8,30.06,South,184,1.0,0.0,41,0.00,CLR,,0.00,WeatherDisplay:10.37,2013-05-31 21:00:00,
2013-05-31 13:10:00,83.8,56.9,30.05,West,271,0.0,0.0,40,0.00,CLR,,0.00,WeatherDisplay:10.37,2013-05-31 21:10:00,
2013-05-31 13:15:00,84.4,56.7,30.05,SW,233,1.0,0.0,39,0.00,CLR,,0.00,WeatherDisplay:10.37,2013-05-31 21:15:00,
2013-05-31 13:25:00,84.3,53.6,30.05,SSW,196,0.0,0.0,35,0.00,CLR,,0.00,WeatherDisplay:10.37,2013-05-31 21:25:00,
2013-05-31 13:30:00,84.5,53.9,30.05,SW,230,1.0,0.0,35,0.00,CLR,,0.00,WeatherDisplay:10.37,2013-05-31 21:30:00,
2013-05-31 13:40:00,85.0,50.1,30.04,SSW,206,0.0,0.0,30,0.00,CLR,,0.00,WeatherDisplay:10.37,2013-05-31 21:40:00,
2013-05-31 13:45:00,85.6,50.6,30.04,SW,221,0.0,0.0,30,0.00,CLR,,0.00,WeatherDisplay:10.37,2013-05-31 21:45:00,
2013-05-31 13:50:00,86.1,49.2,30.04,SW,222,1.0,0.0,28,0.00,CLR,,0.00,WeatherDisplay:10.37,2013-05-31 21:50:00,
2013-05-31 13:55:00,86.1,47.2,30.04,SW,233,3.0,0.0,26,0.00,CLR,,0.00,WeatherDisplay:10.37,2013-05-31 21:55:00,
2013-05-31 14:00:00,85.5,44.6,30.04,WSW,238,0.0,0.0,24,0.00,CLR,,0.00,WeatherDisplay:10.37,2013-05-31 22:00:00,
2013-05-31 14:10:00,86.5,45.5,30.04,WSW,250,1.0,0.0,24,0.00,CLR,,0.00,WeatherDisplay:10.37,2013-05-31 22:10:00,
2013-05-31 14:15:00,86.4,45.3,30.04,WSW,245,0.0,0.0,24,0.00,CLR,,0.00,WeatherDisplay:10.37,2013-05-31 22:15:00,
2013-05-31 14:25:00,85.8,44.8,30.03,WSW,255,1.0,0.0,24,0.00,CLR,,0.00,WeatherDisplay:10.37,2013-05-31 22:25:00,
2013-05-31 14:30:00,85.7,44.7,30.04,WSW,256,1.0,0.0,24,0.00,CLR,,0.00,WeatherDisplay:10.37,2013-05-31 22:30:00,
2013-05-31 14:40:00,85.5,44.6,30.04,WSW,258,0.0,0.0,24,0.00,CLR,,0.00,WeatherDisplay:10.37,2013-05-31 22:40:00,
2013-05-31 14:45:00,85.6,44.7,30.04,WSW,255,0.0,0.0,24,0.00,CLR,,0.00,WeatherDisplay:10.37,2013-05-31 22:45:00,
2013-05-31 14:55:00,85.6,45.7,30.03,WSW,245,2.0,0.0,25,0.00,CLR,,0.00,WeatherDisplay:10.37,2013-05-31 22:55:00,
2013-05-31 15:00:00,84.8,44.0,30.03,WSW,258,1.0,0.0,24,0.00,CLR,,0.00,WeatherDisplay:10.37,2013-05-31 23:00:00,
2013-05-31 15:10:00,85.8,44.8,30.03,WSW,243,0.0,0.0,24,0.00,CLR,,0.00,WeatherDisplay:10.37,2013-05-31 23:10:00,
2013-05-31 15:15:00,86.1,42.8,30.03,WSW,245,0.0,0.0,22,0.00,CLR,,0.00,WeatherDisplay:10.37,2013-05-31 23:15:00,
2013-05-31 15:25:00,85.3,49.4,30.03,West,260,0.0,0.0,29,0.00,CLR,,0.00,WeatherDisplay:10.37,2013-05-31 23:25:00,
2013-05-31 15:30:00,85.5,42.3,30.03,WSW,258,0.0,0.0,22,0.00,CLR,,0.00,WeatherDisplay:10.37,2013-05-31 23:30:00,
2013-05-31 15:40:00,85.8,42.6,30.03,WSW,257,0.0,0.0,22,0.00,CLR,,0.00,WeatherDisplay:10.37,2013-05-31 23:40:00,
2013-05-31 15:45:00,86.7,43.3,30.03,West,270,0.0,0.0,22,0.00,CLR,,0.00,WeatherDisplay:10.37,2013-05-31 23:45:00,
2013-05-31 15:55:00,86.4,40.6,30.03,WSW,252,0.0,0.0,20,0.00,CLR,,0.00,WeatherDisplay:10.37,2013-05-31 23:55:00,
2013-05-31 16:00:00,86.6,40.7,30.03,WSW,258,0.0,0.0,20,0.00,CLR,,0.00,WeatherDisplay:10.37,2013-06-01 00:00:00,
2013-05-31 16:10:00,86.4,39.2,30.03,WSW,237,0.0,0.0,19,0.00,CLR,,0.00,WeatherDisplay:10.37,2013-06-01 00:10:00,
2013-05-31 16:15:00,85.8,38.8,30.03,WSW,239,3.0,0.0,19,0.00,CLR,,0.00,WeatherDisplay:10.37,2013-06-01 00:15:00,
2013-05-31 16:20:00,85.5,38.5,30.03,WSW,237,0.0,0.0,19,0.00,CLR,,0.00,WeatherDisplay:10.37,2013-06-01 00:20:00,
2013-05-31 16:25:00,85.5,38.6,30.03,WSW,249,0.0,0.0,19,0.00,CLR,,0.00,WeatherDisplay:10.37,2013-06-01 00:25:00,
2013-05-31 16:30:00,85.5,38.5,30.03,WSW,257,1.0,0.0,19,0.00,CLR,,0.00,WeatherDisplay:10.37,2013-06-01 00:30:00,
2013-05-31 16:35:00,85.6,40.0,30.04,WSW,253,0.0,0.0,20,0.00,CLR,,0.00,WeatherDisplay:10.37,2013-06-01 00:35:00,
2013-05-31 16:40:00,85.8,37.4,30.04,WSW,249,0.0,0.0,18,0.00,CLR,,0.00,WeatherDisplay:10.37,2013-06-01 00:40:00,
2013-05-31 16:45:00,85.8,37.4,30.04,WSW,246,0.0,0.0,18,0.00,CLR,,0.00,WeatherDisplay:10.37,2013-06-01 00:45:00,
2013-05-31 16:55:00,85.8,37.4,30.04,WSW,244,0.0,0.0,18,0.00,CLR,,0.00,WeatherDisplay:10.37,2013-06-01 00:55:00,
2013-05-31 17:00:00,85.9,37.4,30.04,WSW,246,1.0,0.0,18,0.00,CLR,,0.00,WeatherDisplay:10.37,2013-06-01 01:00:00,
2013-05-31 17:10:00,86.4,39.2,30.04,WSW,250,0.0,0.0,19,0.00,CLR,,0.00,WeatherDisplay:10.37,2013-06-01 01:10:00,
2013-05-31 17:15:00,87.1,39.8,30.04,WSW,251,1.0,0.0,19,0.00,CLR,,0.00,WeatherDisplay:10.37,2013-06-01 01:15:00,
2013-05-31 17:25:00,86.7,38.1,30.04,WSW,255,0.0,0.0,18,0.00,CLR,,0.00,WeatherDisplay:10.37,2013-06-01 01:25:00,
2013-05-31 17:30:00,87.6,40.2,30.04,West,259,0.0,0.0,19,0.00,CLR,,0.00,WeatherDisplay:10.37,2013-06-01 01:30:00,
2013-05-31 17:40:00,87.8,39.0,30.04,WSW,254,0.0,0.0,18,0.00,CLR,,0.00,WeatherDisplay:10.37,2013-06-01 01:40:00,
2013-05-31 17:45:00,87.9,36.1,30.04,WSW,254,0.0,0.0,16,0.00,CLR,,0.00,WeatherDisplay:10.37,2013-06-01 01:45:00,
2013-05-31 17:50:00,87.6,35.9,30.04,West,269,0.0,0.0,16,0.00,CLR,,0.00,WeatherDisplay:10.37,2013-06-01 01:50:00,
2013-05-31 17:55:00,88.0,36.1,30.04,West,278,0.0,0.0,16,0.00,CLR,,0.00,WeatherDisplay:10.37,2013-06-01 01:55:00,
2013-05-31 18:00:00,88.3,36.4,30.04,WNW,293,0.0,0.0,16,0.00,CLR,,0.00,WeatherDisplay:10.37,2013-06-01 02:00:00,
2013-05-31 18:10:00,87.2,35.5,30.03,SW,234,3.0,0.0,16,0.00,CLR,,0.00,WeatherDisplay:10.37,2013-06-01 02:10:00,
2013-05-31 18:15:00,86.2,34.7,30.03,WSW,238,0.0,0.0,16,0.00,CLR,,0.00,WeatherDisplay:10.37,2013-06-01 02:15:00,
2013-05-31 18:25:00,85.8,36.0,30.04,WSW,255,0.0,0.0,17,0.00,CLR,,0.00,WeatherDisplay:10.37,2013-06-01 02:25:00,
2013-05-31 18:30:00,85.9,37.5,30.04,West,259,0.0,0.0,18,0.00,CLR,,0.00,WeatherDisplay:10.37,2013-06-01 02:30:00,
2013-05-31 18:40:00,84.4,36.2,30.04,West,281,0.0,0.0,18,0.00,CLR,,0.00,WeatherDisplay:10.37,2013-06-01 02:40:00,
2013-05-31 18:45:00,82.8,35.0,30.04,WSW,256,0.0,0.0,18,0.00,CLR,,0.00,WeatherDisplay:10.37,2013-06-01 02:45:00,
2013-05-31 18:55:00,80.8,33.3,30.03,West,272,0.0,0.0,18,0.00,CLR,,0.00,WeatherDisplay:10.37,2013-06-01 02:55:00,
2013-05-31 19:00:00,80.2,32.8,30.03,West,272,0.0,0.0,18,0.00,CLR,,0.00,WeatherDisplay:10.37,2013-06-01 03:00:00,
2013-05-31 19:10:00,78.6,32.9,30.03,WSW,248,1.0,0.0,19,0.00,CLR,,0.00,WeatherDisplay:10.37,2013-06-01 03:10:00,
2013-05-31 19:15:00,77.9,32.3,30.03,West,260,0.0,0.0,19,0.00,CLR,,0.00,WeatherDisplay:10.37,2013-06-01 03:15:00,
2013-05-31 19:20:00,77.5,33.3,30.04,WSW,255,0.0,0.0,20,0.00,CLR,,0.00,WeatherDisplay:10.37,2013-06-01 03:20:00,
2013-05-31 19:25:00,77.3,31.8,30.03,West,262,0.0,0.0,19,0.00,CLR,,0.00,WeatherDisplay:10.37,2013-06-01 03:25:00,
2013-05-31 19:30:00,77.3,33.0,30.04,West,270,0.0,0.0,20,0.00,CLR,,0.00,WeatherDisplay:10.37,2013-06-01 03:30:00,
2013-05-31 19:40:00,77.2,33.0,30.04,West,263,0.0,0.0,20,0.00,CLR,,0.00,WeatherDisplay:10.37,2013-06-01 03:40:00,
2013-05-31 19:45:00,77.2,33.0,30.04,West,262,0.0,0.0,20,0.00,CLR,,0.00,WeatherDisplay:10.37,2013-06-01 03:45:00,
2013-05-31 19:50:00,76.9,34.0,30.04,WSW,256,0.0,0.0,21,0.00,CLR,,0.00,WeatherDisplay:10.37,2013-06-01 03:50:00,
2013-05-31 19:55:00,76.8,33.9,30.04,West,273,0.0,0.0,21,0.00,CLR,,0.00,WeatherDisplay:10.37,2013-06-01 03:55:00,
2013-05-31 20:00:00,76.6,33.7,30.04,West,275,0.0,0.0,21,0.00,CLR,,0.00,WeatherDisplay:10.37,2013-06-01 04:00:00,
2013-05-31 20:05:00,76.1,33.3,30.04,WSW,256,0.0,0.0,21,0.00,CLR,,0.00,WeatherDisplay:10.37,2013-06-01 04:05:00,
2013-05-31 20:10:00,75.9,34.3,30.04,West,269,0.0,0.0,22,0.00,CLR,,0.00,WeatherDisplay:10.37,2013-06-01 04:10:00,
2013-05-31 20:15:00,75.9,33.2,30.04,WSW,252,0.0,0.0,21,0.00,CLR,,0.00,WeatherDisplay:10.37,2013-06-01 04:15:00,
2013-05-31 20:20:00,75.7,34.2,30.04,WSW,252,0.0,0.0,22,0.00,CLR,,0.00,WeatherDisplay:10.37,2013-06-01 04:20:00,
2013-05-31 20:25:00,75.4,33.9,30.04,WSW,254,0.0,0.0,22,0.00,CLR,,0.00,WeatherDisplay:10.37,2013-06-01 04:25:00,
2013-05-31 20:30:00,74.9,33.5,30.04,West,276,0.0,0.0,22,0.00,CLR,,0.00,WeatherDisplay:10.37,2013-06-01 04:30:00,
2013-05-31 20:35:00,74.6,34.3,30.04,West,269,0.0,0.0,23,0.00,CLR,,0.00,WeatherDisplay:10.37,2013-06-01 04:35:00,
2013-05-31 20:40:00,74.4,33.0,30.04,West,265,0.0,0.0,22,0.00,CLR,,0.00,WeatherDisplay:10.37,2013-06-01 04:40:00,
2013-05-31 20:45:00,74.3,34.1,30.04,West,273,0.0,0.0,23,0.00,CLR,,0.00,WeatherDisplay:10.37,2013-06-01 04:45:00,
2013-05-31 20:50:00,73.9,33.8,30.04,WSW,253,0.0,0.0,23,0.00,CLR,,0.00,WeatherDisplay:10.37,2013-06-01 04:50:00,
2013-05-31 20:55:00,73.9,34.8,30.05,West,260,3.0,0.0,24,0.00,CLR,,0.00,WeatherDisplay:10.37,2013-06-01 04:55:00,
2013-05-31 21:00:00,73.6,38.5,30.04,West,266,0.0,0.0,28,0.00,CLR,,0.00,WeatherDisplay:10.37,2013-06-01 05:00:00,
2013-05-31 21:10:00,73.2,36.3,30.05,West,277,0.0,0.0,26,0.00,CLR,,0.00,WeatherDisplay:10.37,2013-06-01 05:10:00,
2013-05-31 21:15:00,73.0,35.1,30.05,WNW,282,0.0,0.0,25,0.00,CLR,,0.00,WeatherDisplay:10.37,2013-06-01 05:15:00,
2013-05-31 21:25:00,72.5,35.6,30.05,West,272,0.0,0.0,26,0.00,CLR,,0.00,WeatherDisplay:10.37,2013-06-01 05:25:00,
2013-05-31 21:30:00,72.1,34.4,30.05,West,267,0.0,0.0,25,0.00,CLR,,0.00,WeatherDisplay:10.37,2013-06-01 05:30:00,
2013-05-31 21:40:00,71.6,35.8,30.05,West,272,0.0,0.0,27,0.00,CLR,,0.00,WeatherDisplay:10.37,2013-06-01 05:40:00,
2013-05-31 21:45:00,71.2,36.4,30.05,West,259,1.0,0.0,28,0.00,CLR,,0.00,WeatherDisplay:10.37,2013-06-01 05:45:00,
2013-05-31 21:55:00,70.7,37.7,30.05,WNW,298,0.0,0.0,30,0.00,CLR,,0.00,WeatherDisplay:10.37,2013-06-01 05:55:00,
2013-05-31 22:00:00,70.1,36.4,30.05,West,281,0.0,0.0,29,0.00,CLR,,0.00,WeatherDisplay:10.37,2013-06-01 06:00:00,
2013-05-31 22:05:00,69.9,38.7,30.06,WNW,289,0.0,0.0,32,0.00,CLR,,0.00,WeatherDisplay:10.37,2013-06-01 06:05:00,
2013-05-31 22:10:00,69.8,38.6,30.06,WNW,298,0.0,0.0,32,0.00,CLR,,0.00,WeatherDisplay:10.37,2013-06-01 06:10:00,
2013-05-31 22:15:00,69.4,36.6,30.06,NW,310,0.0,0.0,30,0.00,CLR,,0.00,WeatherDisplay:10.37,2013-06-01 06:15:00,
2013-05-31 22:25:00,69.1,38.8,30.06,NNW,331,0.0,0.0,33,0.00,CLR,,0.00,WeatherDisplay:10.37,2013-06-01 06:25:00,
2013-05-31 22:30:00,68.7,37.7,30.06,NNW,329,0.0,0.0,32,0.00,CLR,,0.00,WeatherDisplay:10.37,2013-06-01 06:30:00,
2013-05-31 22:40:00,68.4,38.1,30.06,NW,313,0.0,0.0,33,0.00,CLR,,0.00,WeatherDisplay:10.37,2013-06-01 06:40:00,
2013-05-31 22:45:00,68.2,35.5,30.06,NW,310,0.0,0.0,30,0.00,CLR,,0.00,WeatherDisplay:10.37,2013-06-01 06:45:00,
2013-05-31 22:55:00,67.8,35.2,30.06,NW,309,0.0,0.0,30,0.00,CLR,,0.00,WeatherDisplay:10.37,2013-06-01 06:55:00,
2013-05-31 23:00:00,67.6,36.7,30.07,NW,317,0.0,0.0,32,0.00,CLR,,0.00,WeatherDisplay:10.37,2013-06-01 07:00:00,
2013-05-31 23:05:00,67.6,34.2,30.07,NW,322,0.0,0.0,29,0.00,CLR,,0.00,WeatherDisplay:10.37,2013-06-01 07:05:00,
2013-05-31 23:10:00,67.5,34.9,30.07,NW,320,0.0,0.0,30,0.00,CLR,,0.00,WeatherDisplay:10.37,2013-06-01 07:10:00,
2013-05-31 23:15:00,67.6,34.2,30.07,NW,320,0.0,0.0,29,0.00,CLR,,0.00,WeatherDisplay:10.37,2013-06-01 07:15:00,
2013-05-31 23:25:00,67.3,35.6,30.07,NW,311,0.0,0.0,31,0.00,CLR,,0.00,WeatherDisplay:10.37,2013-06-01 07:25:00,
2013-05-31 23:30:00,66.9,36.1,30.07,NW,315,0.0,0.0,32,0.00,CLR,,0.00,WeatherDisplay:10.37,2013-06-01 07:30:00,
2013-05-31 23:40:00,66.2,36.2,30.08,NW,309,0.0,0.0,33,0.00,CLR,,0.00,WeatherDisplay:10.37,2013-06-01 07:40:00,
2013-05-31 23:45:00,66.0,34.5,30.08,NW,307,0.0,0.0,31,0.00,CLR,,0.00,WeatherDisplay:10.37,2013-06-01 07:45:00,
2013-05-31 23:55:00,65.7,35.8,30.08,NW,314,0.0,0.0,33,0.00,CLR,,0.00,WeatherDisplay:10.37,2013-06-01 07:55:00,